TimeEST,TemperatureF,Dew PointF,Humidity,Sea Level PressureIn,VisibilityMPH,Wind Direction,Wind SpeedMPH,Gust SpeedMPH,PrecipitationIn,Events,Conditions,WindDirDegrees,DateUTC
12:15 AM,41.0,30.2,65,29.94,10.0,West,10.4,18.4,N/A,,Overcast,280,2012-12-21 05:15:00
12:35 AM,41.0,28.4,61,29.94,10.0,West,15.0,21.9,N/A,,Overcast,280,2012-12-21 05:35:00
12:55 AM,41.0,28.4,61,29.95,10.0,West,16.1,26.5,N/A,,Overcast,280,2012-12-21 05:55:00
1:15 AM,41.0,26.6,57,29.95,10.0,WNW,10.4,23.0,N/A,,Overcast,290,2012-12-21 06:15:00
1:35 AM,39.2,23.0,52,29.96,10.0,NW,13.8,23.0,N/A,,Mostly Cloudy,310,2012-12-21 06:35:00
1:55 AM,37.4,23.0,56,29.96,10.0,WNW,5.8,18.4,N/A,,Clear,290,2012-12-21 06:55:00
2:15 AM,35.6,23.0,60,29.96,10.0,WNW,13.8,21.9,N/A,,Clear,300,2012-12-21 07:15:00
2:35 AM,35.6,23.0,60,29.97,10.0,WNW,12.7,23.0,N/A,,Clear,300,2012-12-21 07:35:00
2:55 AM,35.6,21.2,56,29.97,10.0,WNW,12.7,20.7,N/A,,Clear,290,2012-12-21 07:55:00
3:15 AM,35.6,23.0,60,29.98,10.0,WNW,6.9,17.3,N/A,,Clear,300,2012-12-21 08:15:00
3:35 AM,35.6,23.0,60,29.98,10.0,WNW,6.9,16.1,N/A,,Scattered Clouds,290,2012-12-21 08:35:00
3:55 AM,33.8,23.0,65,29.98,10.0,West,11.5,16.1,N/A,,Scattered Clouds,270,2012-12-21 08:55:00
4:15 AM,33.8,23.0,65,29.99,10.0,WNW,9.2,16.1,N/A,,Clear,300,2012-12-21 09:15:00
4:35 AM,33.8,21.2,60,29.99,10.0,WNW,12.7,21.9,N/A,,Clear,290,2012-12-21 09:35:00
4:55 AM,33.8,21.2,60,29.99,10.0,WNW,12.7,24.2,N/A,,Clear,300,2012-12-21 09:55:00
5:15 AM,33.8,21.2,60,29.99,10.0,WNW,13.8,28.8,N/A,,Clear,290,2012-12-21 10:15:00
5:35 AM,33.8,19.4,56,29.99,10.0,WNW,11.5,18.4,N/A,,Clear,290,2012-12-21 10:35:00
5:55 AM,33.8,21.2,60,30.00,10.0,West,13.8,24.2,N/A,,Clear,280,2012-12-21 10:55:00
6:15 AM,33.8,19.4,56,30.01,10.0,West,12.7,20.7,N/A,,Clear,280,2012-12-21 11:15:00
6:35 AM,33.8,19.4,56,30.02,10.0,West,11.5,21.9,N/A,,Clear,280,2012-12-21 11:35:00
6:55 AM,33.8,19.4,56,30.03,10.0,West,11.5,20.7,N/A,,Clear,280,2012-12-21 11:55:00
7:15 AM,32.0,19.4,60,30.03,10.0,West,13.8,20.7,N/A,,Clear,280,2012-12-21 12:15:00
7:35 AM,32.0,19.4,60,30.04,10.0,WNW,13.8,23.0,N/A,,Clear,290,2012-12-21 12:35:00
7:55 AM,32.0,19.4,60,30.04,10.0,WNW,10.4,25.3,N/A,,Clear,290,2012-12-21 12:55:00
8:15 AM,32.0,19.4,60,30.05,10.0,WNW,6.9,17.3,N/A,,Clear,290,2012-12-21 13:15:00
8:35 AM,33.8,19.4,56,30.05,10.0,NW,15.0,21.9,N/A,,Clear,310,2012-12-21 13:35:00
8:55 AM,33.8,19.4,56,30.06,10.0,WNW,13.8,20.7,N/A,,Clear,300,2012-12-21 13:55:00
9:15 AM,33.8,19.4,56,30.06,10.0,WNW,16.1,24.2,N/A,,Clear,300,2012-12-21 14:15:00
9:35 AM,35.6,19.4,52,30.07,10.0,NW,15.0,26.5,N/A,,Clear,310,2012-12-21 14:35:00
9:55 AM,35.6,19.4,52,30.08,10.0,WNW,15.0,26.5,N/A,,Clear,300,2012-12-21 14:55:00
10:15 AM,35.6,19.4,52,30.09,10.0,WNW,17.3,25.3,N/A,,Clear,290,2012-12-21 15:15:00
10:35 AM,37.4,19.4,48,30.09,10.0,WNW,12.7,24.2,N/A,,Clear,300,2012-12-21 15:35:00
10:55 AM,37.4,19.4,48,30.09,10.0,NW,17.3,24.2,N/A,,Clear,310,2012-12-21 15:55:00
11:15 AM,39.2,19.4,45,30.09,10.0,WNW,11.5,23.0,N/A,,Clear,300,2012-12-21 16:15:00
11:35 AM,39.2,19.4,45,30.09,10.0,NW,12.7,26.5,N/A,,Clear,310,2012-12-21 16:35:00
11:55 AM,41.0,19.4,42,30.09,10.0,NW,18.4,26.5,N/A,,Clear,310,2012-12-21 16:55:00
12:15 PM,41.0,19.4,42,30.08,10.0,NW,17.3,24.2,N/A,,Clear,320,2012-12-21 17:15:00
12:35 PM,41.0,19.4,42,30.07,10.0,NW,12.7,23.0,N/A,,Clear,320,2012-12-21 17:35:00
12:55 PM,42.8,19.4,39,30.07,10.0,NW,15.0,24.2,N/A,,Clear,320,2012-12-21 17:55:00
1:15 PM,42.8,19.4,39,30.06,10.0,WNW,12.7,27.6,N/A,,Clear,300,2012-12-21 18:15:00
1:35 PM,42.8,19.4,39,30.06,10.0,WNW,11.5,26.5,N/A,,Clear,290,2012-12-21 18:35:00
1:55 PM,42.8,19.4,39,30.06,10.0,NW,13.8,25.3,N/A,,Clear,320,2012-12-21 18:55:00
2:15 PM,44.6,19.4,37,30.06,10.0,WNW,16.1,28.8,N/A,,Clear,300,2012-12-21 19:15:00
2:35 PM,44.6,17.6,34,30.06,10.0,WNW,15.0,21.9,N/A,,Clear,290,2012-12-21 19:35:00
2:55 PM,44.6,17.6,34,30.06,10.0,WNW,13.8,26.5,N/A,,Clear,300,2012-12-21 19:55:00
3:15 PM,44.6,17.6,34,30.06,10.0,WNW,12.7,27.6,N/A,,Clear,290,2012-12-21 20:15:00
3:35 PM,44.6,17.6,34,30.07,10.0,WNW,15.0,23.0,N/A,,Clear,300,2012-12-21 20:35:00
3:55 PM,44.6,17.6,34,30.07,10.0,WNW,13.8,28.8,N/A,,Clear,290,2012-12-21 20:55:00
4:15 PM,44.6,17.6,34,30.08,10.0,NW,15.0,19.6,N/A,,Clear,310,2012-12-21 21:15:00
4:35 PM,44.6,17.6,34,30.09,10.0,WNW,13.8,21.9,N/A,,Clear,290,2012-12-21 21:35:00
4:55 PM,42.8,17.6,36,30.10,10.0,NW,11.5,17.3,N/A,,Clear,310,2012-12-21 21:55:00
5:15 PM,42.8,17.6,36,30.10,10.0,WNW,10.4,18.4,N/A,,Clear,290,2012-12-21 22:15:00
5:35 PM,41.0,17.6,39,30.10,10.0,WNW,9.2,-,N/A,,Clear,300,2012-12-21 22:35:00
5:55 PM,41.0,17.6,39,30.12,10.0,NW,9.2,16.1,N/A,,Clear,310,2012-12-21 22:55:00
6:15 PM,39.2,17.6,42,30.14,10.0,WNW,5.8,-,N/A,,Clear,300,2012-12-21 23:15:00
6:35 PM,39.2,17.6,42,30.14,10.0,WNW,6.9,-,N/A,,Clear,290,2012-12-21 23:35:00
6:55 PM,37.4,17.6,45,30.15,10.0,WNW,5.8,-,N/A,,Clear,300,2012-12-21 23:55:00
7:15 PM,37.4,17.6,45,30.15,10.0,NW,5.8,-,N/A,,Clear,310,2012-12-22 00:15:00
7:35 PM,37.4,17.6,45,30.16,10.0,NW,5.8,-,N/A,,Clear,310,2012-12-22 00:35:00
7:55 PM,37.4,17.6,45,30.16,10.0,NW,8.1,-,N/A,,Clear,310,2012-12-22 00:55:00
8:15 PM,37.4,17.6,45,30.16,10.0,NW,6.9,-,N/A,,Clear,310,2012-12-22 01:15:00
8:35 PM,37.4,17.6,45,30.16,10.0,WNW,9.2,-,N/A,,Clear,300,2012-12-22 01:35:00
8:55 PM,35.6,17.6,48,30.17,10.0,WNW,6.9,-,N/A,,Clear,300,2012-12-22 01:55:00
9:15 PM,35.6,17.6,48,30.17,10.0,NW,8.1,-,N/A,,Clear,320,2012-12-22 02:15:00
9:35 PM,35.6,17.6,48,30.17,10.0,NW,8.1,17.3,N/A,,Clear,310,2012-12-22 02:35:00
9:55 PM,35.6,15.8,44,30.17,10.0,NW,9.2,16.1,N/A,,Clear,310,2012-12-22 02:55:00
10:15 PM,35.6,15.8,44,30.19,10.0,NW,5.8,-,N/A,,Clear,310,2012-12-22 03:15:00
10:35 PM,35.6,15.8,44,30.19,10.0,NW,9.2,-,N/A,,Clear,310,2012-12-22 03:35:00
10:55 PM,35.6,15.8,44,30.19,10.0,WNW,9.2,-,N/A,,Clear,300,2012-12-22 03:55:00
11:15 PM,35.6,15.8,44,30.20,10.0,WNW,6.9,-,N/A,,Clear,300,2012-12-22 04:15:00
11:35 PM,33.8,15.8,48,30.20,10.0,WNW,5.8,-,N/A,,Clear,300,2012-12-22 04:35:00
11:55 PM,33.8,15.8,48,30.21,10.0,WNW,11.5,16.1,N/A,,Clear,300,2012-12-22 04:55:00